Location: Carnetin
(48.9010°N, 2.7059°E)
Time: 04:47:50
(UTC+00:00)

USA 229 - Pass Details

Date: 01 June 2022
Orbit: 938 x 1274 km, 63.4° (Epoch: 24 May)

Event Time Altitude Azimuth Distance (km) Brightness Sun altitude
Rises 23:28:31 0° 316° (NW) 3,980 7.5 -18.8°
Reaches altitude 10° 23:31:15 10° 310° (NW) 3,065 6.7 -18.9°
Maximum altitude 23:38:12 46° 241° (WSW) 1,591 4.4 -18.9°
Enters shadow 23:41:47 28° 188° (S) 2,123 4.7 -18.9°
